THORAD DELTA 1 DEB, 8299

Orbit data source: Space-Track

THORAD DELTA 1 DEB, 8299 is space debris in SSO originally from a launch on Fri, 15 Nov 1974 UTC launched from the Air Force Western Test Range (AFWTR). Debris objects in space refer to the collection of defunct objects orbiting the Earth. Examples of debris include non-operational satellites, rocket bodies, and fragments generated from explosions, collisions, or faulty payload assembly.

Loading next visibility...
Identifier
8299, 1974-089BG
Orbit
SSO
Country
Flag of USUS
Related business
Manufacturer
Unknown
Mission
Spacecraft
Bus & Motor
Unknown
Mass
Unknown
Launch date (UTC)
1974-11-15 (52 years ago)
Launch vehicle
Unknown
Launch site
Air Force Western Test Range (AFWTR)
Object type
Payload
Rocket body
Debris
Shape & HBR
Unknown shape, 0.1 m
Radar Cross Section
Medium (>0.1 m² and <1 m²)

Expand to show TLE details & history
Last TLE update: 8 hours ago

TLE from 8 hours ago
0 THORAD DELTA 1 DEB
1 08299U 74089BG  26207.45733612  .00004663  00000-0  27701-2 0  9992
2 08299 102.0565  32.3615 0306266 351.7417   7.8754 13.87318856478910
Epoch: 2026-07-26T10:58Z
TLE epoch observation values (Epoch: 2026-07-26T10:58:33.840Z)
Latitude
-0.00008°
Longitude
-76.43447°
Altitude
718.929 km
Speed
7.609 km/s
True Right ascension
02h 09m 26s
True Declination
0° 00' 00"
Sunlit
Object was in daylight at epoch
Visualization orbit readout
Latitude
Unknown
Longitude
Unknown
Altitude
Unknown
Speed
Unknown
Apparent Right ascension
Unknown
Apparent Declination
Unknown
Sunlit
N/A
Visualization observer readout
Local Sidereal Time
08:15:11
Azimuth
Unknown
Elevation
Unknown
Doppler factor
Unknown
Orbital elements
Apogee altitude
1,159.417 km
Perigee altitude
711.438 km
Semi-major axis
7,313.564 km
Eccentricity
0.03063
Inclination
102.0565°
RAAN
32.3615°
Arg. of periapsis
351.7417°
True anomaly
8.37519°
Mean anomaly
7.8754°
Eccentric anomaly
8.12336°
Mean motion
3.47016 °/min
Orbital period
103.74 mins
BSTAR
0.0027701
Loading maneuver chart data...
Computing Atmospheric mass density...

Documentation

Showing up to 5 results
|